Regional Weather Roundup
Issued by NWS

Home | Current Version | Previous Version | Text Only | Print | Product List | Glossary On
Versions: 1 2 3 4 5 6 7 8 9 10 11 12 13 14 15 16 17 18 19 20 21 22 23 24 25 26 27
000
ASUS45 KBOU 211207
RWRCO

WEATHER ROUNDUP FOR COLORADO
NATIONAL WEATHER SERVICE DENVER/BOULDER CO
500 AM MST SAT JAN 21 2017

NOTE: "FAIR" INDICATES FEW OR NO CLOUDS BELOW 12000 FEET WITH NO
SIGNIFICANT WEATHER AND/OR OBSTRUCTIONS TO VISIBILITY.

COZ001>005-013-030-031-211300-
...NORTHWEST COLORADO...

CITY           SKY/WX    TMP DP  RH WIND       PRES   REMARKS
CRAIG          CLOUDY    15  10  80 CALM      29.35R
HAYDEN         FAIR      16  10  79 E10       29.34R WCI   3
MEEKER         FAIR      18  14  84 CALM      29.31F
MOUNT WERNER   NOT AVBL
STEAMBOAT SPGS FAIR      11   9  91 CALM      29.35S
WALDEN           N/A      9   3  78 CALM      29.35F
$$

COZ006>008-011-211300-
...WEST CENTRAL VALLEYS...

CITY           SKY/WX    TMP DP  RH WIND       PRES   REMARKS
GRAND JUNCTION CLOUDY    34  28  79 SE9       29.32F WCI  27
MONTROSE       CLOUDY    32  18  56 NE14      29.35F WCI  22
EAGLE          CLOUDY    11   9  92 E5        29.42F WCI   3
RIFLE          CLOUDY    26  23  88 CALM      29.35F
DELTA          CLOUDY    34  28  79 N5        29.36F WCI  30
NUCLA          LGT SNOW  32  30  93 CALM      29.34F
$$

COZ017>023-064>068-211300-
...SOUTHWEST COLORADO...

CITY           SKY/WX    TMP DP  RH WIND       PRES   REMARKS
DURANGO        LGT SNOW  27  25  92 CALM      29.36F VSB 1
CORTEZ         FLURRIES  32  31  96 NE3       29.33F
PAGOSA SPRINGS LGT SNOW  26  26  99 NE3       29.38F
TELLURIDE      NOT AVBL
WOLF CREEK PAS CLOUDY    14  12  92 S13G20    29.40F WCI   0
$$

COZ009-010-012-014-032>034-037-058>063-211300-
...CENTRAL COLORADO...

CITY           SKY/WX    TMP DP  RH WIND       PRES   REMARKS
ASPEN          MOCLDY    11   8  88 SW3       29.32F
BUENA VISTA    FAIR       6   1  79 W8        29.41S WCI  -7
COPPER MTN     FAIR      18   5  57 MISG      29.33F
BERTHOUD PASS  NOT AVBL
COTTONWOOD PAS FAIR      18  12  79 CALM      29.37S
GUNNISON       FAIR      11   6  81 NE6       29.41F WCI   1
KREMMLING      SNOW     N/A N/A N/A CALM      29.43S VSB 1/4
LEADVILLE      FAIR       2  -2  83 CALM      29.35S
MONARCH PASS   MOCLDY    10   7  85 SW22G32   29.44F WCI  -9
SALIDA         FAIR      25  16  68 S5        29.47S WCI  20
SUNLIGHT       FOG       14  12  92 MISG      29.37F VSB 1/2
WILKERSON PASS FAIR      10   9  92 SW14G20   29.37F WCI  -5
$$

COZ069>075-211300-
...SAN LUIS VALLEY/SANGRE DE CRISTO MOUNTAINS...

CITY           SKY/WX    TMP DP  RH WIND       PRES   REMARKS
ALAMOSA        LGT SNOW  16  14  92 NW7       29.42F FOG     WCI   6
LA VETA PASS   LGT SNOW  21  18  86 N14G29    29.36F WCI   8
SAGUACHE       CLOUDY    18  14  86 NW8       29.43F WCI   7
$$

COZ035-036-038>040-211300-
...NORTHERN COLORADO FRONT RANGE...

CITY           SKY/WX    TMP DP  RH WIND       PRES   REMARKS
DENVER INTL AP FAIR      24  18  77 W8        29.35F WCI  15
DMNS CITY PARK   N/A     25  22  87 E1        29.36F
AURORA         PTCLDY    25  16  69 W6        29.36F WCI  18
FRONT RANGE AP FAIR      28  19  69 S8        29.37S WCI  20
ERIE MUNI ARPT FAIR      21  20  95 CALM      29.37F
BOULDER MUN AP FAIR      27  23  86 S5        29.36F WCI  21
CENTENNIAL     FAIR      23  13  65 CALM      29.36S
BROOMFIELD     FAIR      28  27  93 CALM      29.36F
FORT COLLINS   FAIR      23  19  86 CALM      29.38R
LONGMONT       FAIR      25  22  86 CALM      29.39S
$$

COZ041-046-047-076>085-087-088-211300-
...PIKES PEAK/PALMER DIVIDE AND SOUTHERN FOOTHILLS...

CITY           SKY/WX    TMP DP  RH WIND       PRES   REMARKS
COLO. SPRINGS  MOCLDY    23  18  81 CALM      29.38F
A. F. ACADEMY  FAIR      20  17  87 E7        29.36F WCI  11
SCHRIEVER AFB  NOT AVBL
ELLICOTT         N/A    N/A N/A N/A E3        29.36F
FALCON         FAIR      20  14  79 CALM      29.38S
FORT CARSON    CLOUDY    25  23  91 NW5       29.36F WCI  20
LIMON          FOG       24  24 100 CALM      29.40F VSB 1/4
MONUMENT HILL  FAIR      23  12  63 S8        29.37F WCI  14
TRINIDAD       FAIR      19  11  70 W9        29.39F WCI   8
$$

COZ042>045-048>051-090-091-211300-
...NORTHEAST COLORADO...

CITY           SKY/WX    TMP DP  RH WIND       PRES   REMARKS
GREELEY ARPT   FAIR      20  18  92 CALM      29.39R
AKRON          FAIR      25  19  78 S9        29.38R WCI  15
BURLINGTON     FAIR      26  24  92 SW7       29.42R WCI  18
WRAY           NOT AVBL
STERLING       FAIR      21  21 100 S3        29.39R
HOLYOKE        FAIR      25  21  86 N5        29.39F WCI  19
FORT MORGAN    FAIR      24  22  91 S3        29.40R
$$

COZ086-089-092>099-211300-
...SOUTHEAST COLORADO...

CITY           SKY/WX    TMP DP  RH WIND       PRES   REMARKS
PUEBLO         FOG       28  27  96 CALM      29.39F VSB 1/4
LA JUNTA       FOG       24  22  91 CALM      29.40F VSB 1/4
LAMAR          FAIR      19  16  88 S6        29.40F FOG     WCI  11
SPRINGFIELD      N/A     26  21  81 W5        29.38F WCI  20
$$




USA.gov is the U.S. government's official web portal to all federal, state and local government web resources and services.